Location: Charbonni�res
(45.9952°N, 2.9982°E)
Time: 13:34:14
(UTC+00:00)

Milstar 3 Cent rocket - Pass Details

Date: 29 November 2020
Orbit: 706 x 5147 km, 28.3° (Epoch: 26 January)

Event Time Altitude Azimuth Distance (km) Brightness Sun altitude
Exits shadow 04:00:14 20° 187° (S) 2,479 4.5 -31.8°
Maximum altitude 04:02:29 22° 163° (SSE) 2,602 4.8 -31.4°
Drops below altitude 10° 04:10:21 10° 118° (ESE) 4,549 6.7 -30.1°
Sets 04:16:28 0° 107° (ESE) 6,412 7.8 -29.0°
